Probability
0 0 0 0 0 0 0 0 0 0 0 0 0 0 0 0 0 0 0 0 0 0 2 4 6 4 1 1 1 3 7 8 6 5 4 4 4 4 4 4 5 6 6 9 11 10 6 3 3
0 0 0 0 0 0 0 0 0 0 0 0 0 0 0 0 0 0 0 0 0 0 2 4 6 4 2 1 1 1 3 5 5 4 4 3 3 4 4 5 7 8 8 9 11 11 8 6 5
0 0 0 0 0 0 0 0 0 0 0 0 0 0 0 0 0 0 0 0 0 0 1 3 5 5 4 3 2 1 1 1 2 4 4 3 2 2 3 7 10 12 12 11 11 11 9 8 8
0 0 0 0 0 0 0 0 0 0 0 0 0 0 0 0 0 0 0 0 0 0 0 2 5 7 6 5 4 3 2 1 0 2 4 3 2 1 3 6 10 12 13 13 12 10 9 8 9
0 0 0 0 0 0 0 0 0 0 0 0 0 0 0 0 0 0 0 0 0 0 0 2 7 9 8 6 4 3 2 1 0 0 2 3 3 2 2 4 7 10 11 12 11 10 8 7 9
0 0 0 0 0 0 0 0 0 0 0 0 0 0 0 0 0 0 1 1 1 1 0 2 7 9 8 5 3 2 1 0 0 0 1 2 3 3 2 3 5 8 10 10 10 7 5 6 7
0 0 0 0 0 0 0 0 0 0 0 0 0 0 0 0 0 1 2 2 2 2 1 2 5 7 6 4 3 3 2 1 0 0 0 1 1 2 2 3 4 7 10 11 9 6 4 4 6
0 0 0 0 0 0 0 0 0 0 0 0 0 0 0 0 0 1 2 3 3 3 3 3 4 5 5 4 3 3 3 2 1 0 0 0 0 1 2 3 4 7 11 11 8 5 3 4 4
0 0 0 0 0 0 0 0 0 0 0 0 0 0 0 0 0 1 2 3 3 3 3 3 3 4 5 4 3 3 3 2 1 0 0 0 0 1 2 3 3 6 9 10 8 6 4 3 3
0 0 0 0 0 0 0 0 0 0 0 0 0 0 0 0 0 0 1 1 2 2 3 3 3 3 4 4 3 2 1 1 0 0 0 0 0 0 1 3 3 5 7 8 7 5 3 2 1
0 0 0 0 0 0 0 0 0 0 0 0 0 0 0 0 0 0 0 0 1 1 1 2 3 3 4 4 3 1 0 0 0 0 0 0 0 0 1 3 4 5 7 8 7 3 2 1 1
0 0 0 0 0 0 0 0 0 0 0 0 0 0 0 0 0 0 0 0 0 0 0 1 2 3 4 5 3 1 0 0 0 0 0 0 0 0 1 3 5 6 7 8 6 3 2 1 1
0 0 0 0 0 0 0 0 0 0 0 0 0 0 0 0 0 0 0 0 0 0 0 0 1 1 2 4 4 1 0 0 0 0 0 0 0 0 1 3 5 6 6 6 5 4 3 3 2
0 0 0 0 0 0 0 0 0 0 0 0 0 0 0 0 0 0 0 0 0 0 0 0 0 0 1 3 3 2 0 0 0 0 0 0 0 0 0 1 4 5 5 4 3 3 4 4 3
0 0 0 0 0 0 0 0 0 0 0 0 0 0 0 0 0 0 0 0 0 0 0 0 0 0 0 1 2 2 1 0 0 0 0 0 0 0 0 1 3 4 4 3 1 2 4 4 3
0 0 0 0 0 0 0 0 0 0 0 0 0 0 0 0 0 0 0 0 0 0 0 0 0 0 0 0 1 3 2 0 0 0 0 0 0 0 0 0 1 3 3 2 1 1 2 3 3
0 0 0 0 0 0 0 0 0 0 0 0 0 0 0 0 0 0 0 0 0 0 0 0 0 0 0 0 1 3 2 1 0 0 0 0 0 0 0 0 0 1 3 2 1 0 1 2 3
0 0 0 0 0 0 0 0 0 0 0 0 0 0 0 0 0 0 0 0 0 0 0 0 0 0 0 0 1 3 3 1 0 0 0 0 0 0 0 0 0 1 2 2 1 0 1 1 1
0 0 0 0 0 0 0 0 0 0 0 0 0 0 0 0 0 0 0 0 0 0 0 0 0 0 0 1 2 3 2 1 0 0 0 0 0 0 0 0 0 1 1 1 0 0 0 0 0
0 0 0 0 0 0 0 0 0 0 0 0 0 0 0 0 0 0 0 0 0 0 0 0 0 0 0 1 2 3 2 1 0 0 0 0 0 0 0 0 1 1 0 0 0 0 0 0 0
0 0 0 0 0 0 0 0 0 0 0 0 0 0 0 0 0 0 0 0 0 0 0 0 0 0 0 1 2 3 2 1 0 0 0 0 0 0 0 0 0 0 0 0 0 0 0 0 0
0 0 0 0 0 0 0 0 0 0 0 0 0 0 0 0 0 0 0 0 0 0 0 0 0 0 0 1 2 2 1 0 0 0 0 0 0 0 0 0 0 0 0 0 0 0 0 0 0
0 0 0 0 0 0 0 0 0 0 0 0 0 0 0 0 0 0 0 0 0 0 0 0 0 0 0 0 1 1 1 0 0 0 0 0 0 0 0 0 0 0 0 0 0 0 0 0 0
0 0 0 0 0 0 0 0 0 0 0 0 0 0 0 0 0 0 0 0 0 0 0 0 0 0 0 0 0 0 0 0 0 0 0 0 0 0 0 0 0 0 0 0 0 0 0 0 0
0 0 0 0 0 0 0 0 0 0 0 0 0 0 0 0 0 0 0 0 0 0 0 0 0 0 0 0 0 0 0 0 0 0 0 0 0 0 0 0 0 0 0 0 0 0 0 0 0
0 0 0 0 0 0 0 0 0 0 0 0 0 0 0 0 0 0 0 0 0 0 0 0 0 0 0 0 0 0 0 0 0 0 0 0 0 0 0 0 0 0 0 0 0 0 0 0 0
0 0 0 0 0 0 0 0 0 0 0 0 0 0 0 0 0 0 0 0 0 0 0 0 0 0 0 0 0 0 0 0 0 0 0 0 0 0 0 0 0 0 0 0 0 0 0 0 0
0 0 0 0 0 0 0 0 0 0 0 0 0 0 0 0 0 0 0 0 0 0 0 0 0 0 0 0 0 0 0 0 0 0 0 0 0 0 0 0 0 0 0 0 0 0 0 0 0
0 0 0 0 0 0 0 0 0 0 0 0 0 0 0 0 0 0 0 0 0 0 0 0 0 0 0 0 0 0 0 0 0 0 0 0 0 0 0 0 0 0 0 0 0 0 0 0 0
0 0 0 0 0 0 0 0 0 0 0 0 0 0 0 0 0 0 0 0 0 0 0 0 0 0 0 0 0 0 0 0 0 0 0 0 0 0 0 0 0 0 0 0 0 0 0 0 0
Wind_Speed
4 2 2 4 6 5 2 4 2 1 1 0 1 4 7 5 4 4 2 1 1 1 2 4 8 9 9 10 10 10 10 10 9 8 8 7 6 6 5 4 4 3 3 2 2 2 3 4 5
1 1 4 5 5 1 5 3 3 3 2 2 3 4 4 2 1 3 1 0 2 2 2 3 8 9 9 10 10 10 10 10 10 9 8 7 7 6 6 5 4 3 3 2 2 2 2 3 4
1 2 5 5 4 5 4 3 4 1 2 2 3 3 3 3 1 2 1 2 3 3 3 3 8 9 9 10 10 10 10 10 10 10 9 8 7 6 6 6 5 4 3 3 2 2 2 2 3
2 4 5 4 3 4 3 2 2 3 2 3 3 3 1 1 2 2 2 3 4 3 3 3 8 9 9 9 10 10 10 10 10 10 10 9 8 7 6 6 6 5 4 3 2 2 2 2 2
4 4 4 0 4 3 2 1 2 3 2 2 3 3 1 2 2 3 4 4 5 3 3 3 8 9 9 9 10 10 10 10 10 10 10 10 9 8 7 7 6 5 4 4 3 2 2 1 2
5 5 4 3 4 3 2 1 2 3 2 2 4 4 1 1 2 3 3 3 3 3 3 4 7 8 8 9 9 10 10 10 10 10 10 10 10 9 9 7 7 7 5 5 4 3 3 2 1
5 4 4 4 2 2 2 2 3 4 3 3 5 5 1 1 1 3 3 4 3 3 4 3 3 5 7 8 9 9 9 9 10 10 10 11 11 10 9 9 8 7 7 6 5 5 4 3 2
4 5 2 3 4 4 1 2 2 3 3 2 4 6 5 4 3 4 4 4 4 3 3 3 3 3 3 3 7 8 8 9 9 9 10 10 10 9 9 9 8 7 6 6 6 5 5 5 3
4 4 3 5 6 4 1 2 1 1 3 1 1 3 3 5 5 4 3 3 2 2 2 2 2 2 2 2 4 5 6 7 7 6 9 8 4 4 5 7 8 8 7 6 5 5 5 5 4
4 4 6 3 3 2 2 2 2 2 1 1 0 0 3 5 6 5 3 2 1 1 1 1 1 1 2 2 2 2 2 2 3 2 3 3 3 3 5 7 8 8 7 6 5 5 4 4 2
4 5 3 2 1 2 2 1 2 4 4 6 6 6 5 5 5 5 4 4 3 2 1 1 0 0 1 1 1 1 1 1 2 2 3 2 2 2 3 2 3 4 4 2 3 3 2 1 1
3 2 2 1 1 1 2 2 1 5 6 4 6 8 7 7 7 7 6 4 3 2 2 2 1 0 0 0 0 0 1 1 1 2 2 1 1 2 2 2 2 2 1 2 2 1 1 1 2
3 2 1 1 1 1 1 2 3 5 5 2 4 6 7 7 6 5 5 4 3 3 3 2 1 1 1 0 0 0 0 1 1 1 1 1 1 2 2 2 2 2 1 1 2 1 2 2 2
3 1 1 1 1 1 1 3 2 8 3 3 5 7 7 7 6 4 4 5 5 4 4 3 2 2 1 1 1 1 1 1 1 1 2 1 1 1 2 2 2 2 2 1 2 2 2 2 2
2 1 2 2 2 1 1 5 7 6 3 5 6 6 6 6 6 7 7 6 6 5 4 3 3 2 2 2 2 1 1 1 1 2 2 2 2 2 2 2 2 3 2 2 2 2 2 2 2
3 2 2 3 2 1 3 9 5 3 5 6 6 6 6 6 6 7 7 6 5 4 4 4 2 2 2 2 2 2 1 1 2 2 2 3 3 2 2 2 3 3 2 2 2 2 2 2 2
1 1 4 4 2 2 4 9 5 1 4 6 6 6 6 6 5 5 5 6 5 5 4 3 3 3 3 2 2 2 2 2 2 2 3 3 3 3 2 3 3 3 2 2 2 2 2 2 3
5 4 3 5 2 2 4 10 10 4 4 7 6 6 6 7 8 6 5 5 4 4 3 3 3 2 2 1 1 1 2 2 2 3 3 4 3 4 3 3 4 3 2 2 2 3 2 3 3
4 4 3 4 1 2 7 11 13 7 5 7 7 7 7 8 7 4 4 4 3 3 3 3 3 2 1 1 1 1 2 2 3 3 4 5 4 4 4 4 4 3 3 3 3 2 3 2 1
3 2 3 3 1 2 5 11 11 8 7 8 9 9 9 7 4 4 4 3 4 4 4 4 4 3 3 2 2 2 2 2 3 3 4 4 5 5 4 4 4 4 3 3 3 2 2 2 1
4 5 4 3 2 2 5 9 6 4 4 5 6 7 7 8 8 6 5 5 4 4 5 4 4 4 4 3 1 1 1 2 2 3 3 4 4 5 5 5 4 4 3 4 4 3 4 3 2
5 4 4 2 0 3 1 6 8 4 5 6 6 6 7 7 6 6 6 5 6 6 4 4 4 4 4 3 2 3 3 4 5 3 3 4 4 5 5 5 5 5 4 4 4 4 4 4 4
3 2 3 2 2 2 1 3 11 3 6 7 7 7 7 6 7 7 7 7 6 4 4 4 3 4 3 3 3 3 4 4 4 3 4 5 4 5 5 5 5 5 4 5 5 5 5 5 5
5 5 5 4 3 3 5 5 10 6 7 5 5 6 6 6 6 5 4 4 3 3 3 3 3 4 3 3 4 4 5 5 5 5 5 5 4 4 5 5 5 5 5 6 6 6 6 6 6
4 5 3 3 2 7 3 5 13 8 6 5 6 6 6 5 5 5 4 4 4 3 3 3 4 5 4 4 5 5 6 6 6 6 5 5 5 4 5 5 5 5 6 6 6 6 7 7 8
5 7 7 6 6 5 2 9 11 5 4 5 5 4 4 4 5 5 6 5 5 4 4 4 4 5 5 5 5 5 5 5 5 6 5 6 5 6 6 6 6 7 7 7 6 6 7 7 8
6 4 4 6 2 3 6 9 12 3 3 3 3 2 4 4 5 5 4 4 4 5 5 5 5 5 5 5 5 5 5 5 6 6 6 5 5 5 6 6 7 7 7 7 7 6 7 7 7
4 8 5 5 4 5 6 6 7 5 4 3 3 4 4 4 4 4 4 4 4 5 5 4 5 6 6 5 5 5 5 5 5 5 6 6 6 6 6 7 7 7 7 7 7 6 7 7 7
5 4 4 4 4 5 4 9 7 7 5 5 5 4 4 4 4 4 4 4 4 4 4 4 5 5 5 5 5 4 5 5 5 5 6 6 6 6 7 7 7 7 7 7 7 7 7 8 8
4 6 8 6 5 4 3 11 5 4 4 4 4 4 3 4 4 3 3 3 3 4 4 4 4 5 5 4 4 4 4 4 5 6 6 6 6 6 7 7 7 7 7 7 7 8 8 9 9
Wind_Direction
5 43 74 60 59 57 231 239 218 189 175 73 86 110 128 131 150 160 191 92 107 102 37 58 64 62 58 53 50 48 44 43 44 45 46 48 49 47 50 63 71 77 90 103 113 131 142 145 142
32 84 59 64 93 146 254 232 202 194 162 126 72 81 86 85 74 109 130 104 111 89 56 59 67 63 60 56 51 47 45 41 39 37 39 41 42 40 39 47 57 60 61 66 78 100 118 140 147
120 60 85 84 135 189 220 210 192 133 101 104 82 64 107 129 135 151 187 137 97 71 49 60 70 65 60 55 49 46 45 42 39 36 33 32 33 35 35 34 42 46 48 49 58 78 88 120 145
92 54 60 88 208 225 226 216 167 126 74 60 103 80 61 66 175 165 129 116 100 72 44 54 71 66 61 56 50 46 44 43 39 36 32 28 24 23 26 27 31 36 36 38 44 55 70 90 128
62 81 82 122 238 245 243 229 170 140 125 83 112 116 60 357 63 106 117 115 110 84 46 49 69 67 62 55 50 47 44 42 39 35 32 28 24 18 15 21 21 24 27 25 28 33 40 70 85
63 74 111 210 237 256 255 216 145 129 128 122 123 123 186 10 89 111 115 108 105 94 56 45 64 64 59 55 51 46 43 40 37 33 30 27 24 20 18 17 18 19 17 13 19 25 21 17 39
110 115 173 199 215 246 223 153 145 141 145 178 151 127 200 260 157 120 103 96 80 72 64 46 44 48 56 56 50 45 42 39 37 33 30 26 24 20 18 15 15 17 19 17 22 26 19 11 2
123 115 166 207 199 230 194 118 127 143 156 142 141 148 194 205 141 105 83 72 65 55 53 46 40 43 41 43 47 44 40 37 35 32 29 26 22 16 14 11 7 9 11 15 19 23 21 14 3
92 89 205 213 196 218 166 125 77 86 113 99 176 184 189 134 120 99 77 49 44 39 29 39 38 32 35 41 45 39 36 33 31 27 26 22 11 2 4 4 4 2 3 6 10 15 15 12 0
100 167 220 216 192 184 165 156 157 110 107 168 277 49 113 122 135 135 140 152 167 255 317 17 36 25 29 34 33 26 28 26 25 21 17 14 7 359 2 358 359 357 358 359 359 3 12 16 354
151 193 219 234 202 163 152 167 167 145 214 208 196 180 153 151 157 164 176 182 195 212 247 274 264 22 44 29 22 16 14 15 14 12 8 8 8 355 356 350 345 339 349 346 340 345 1 351 347
164 225 206 228 180 156 167 166 193 201 222 205 188 168 163 171 182 187 189 199 201 208 232 246 228 202 352 21 5 0 9 1 355 345 350 6 4 354 344 342 328 331 324 326 323 321 325 328 326
189 225 213 217 181 196 174 223 227 246 243 196 158 165 179 188 201 208 200 201 203 214 233 238 226 212 216 232 289 10 307 288 293 308 318 336 343 332 331 323 318 308 303 306 307 307 309 303 303
193 185 267 281 248 257 212 264 235 253 215 182 179 191 200 201 203 204 205 210 216 219 227 231 224 220 203 214 233 244 252 258 274 278 278 283 279 293 313 315 311 299 280 269 274 273 271 271 266
97 69 330 265 205 225 100 284 233 238 173 190 203 208 215 219 212 209 210 210 213 218 221 221 221 210 206 225 241 246 254 262 267 272 276 273 266 266 277 296 298 293 277 268 274 282 266 277 273
71 72 277 272 182 169 149 262 259 207 176 208 217 220 226 234 228 225 217 213 212 209 214 223 220 205 222 232 242 249 258 263 263 263 264 264 264 262 267 282 285 288 279 265 265 268 271 273 276
52 204 238 280 201 160 189 251 271 198 195 222 225 225 231 241 245 235 219 210 206 203 206 215 221 216 226 237 249 255 264 265 265 269 266 260 258 256 254 264 274 281 278 264 269 268 252 264 279
205 209 232 246 248 175 230 258 275 271 226 237 237 234 232 233 237 230 217 210 204 201 204 210 220 223 223 244 280 291 285 272 267 265 264 261 256 255 255 261 268 267 272 269 257 261 257 251 265
159 173 226 252 247 212 244 266 274 268 240 240 240 234 233 236 242 230 217 203 193 198 206 211 213 227 208 234 258 268 270 271 271 263 262 260 255 253 252 263 267 255 254 259 253 252 259 262 253
155 187 242 284 328 234 281 276 269 248 231 227 227 229 228 234 241 230 219 203 201 208 215 218 222 230 229 228 231 231 242 255 260 268 269 261 261 260 259 253 258 253 251 259 253 236 248 260 218
208 201 215 241 343 4 325 299 274 261 237 235 224 223 222 217 218 218 216 216 214 224 222 224 234 239 243 239 253 290 302 301 289 278 272 264 262 262 257 255 255 253 243 249 251 234 231 246 240
225 210 190 188 49 298 28 294 285 266 274 247 233 224 224 221 214 211 212 217 221 227 230 238 245 245 247 236 231 236 250 262 260 264 269 277 265 263 259 252 249 250 247 249 252 245 227 231 242
183 113 126 135 153 309 267 238 281 285 263 252 236 229 228 221 212 210 211 216 222 222 228 246 256 257 254 247 235 239 252 258 271 276 277 278 275 265 260 254 250 248 247 247 247 251 238 229 230
131 82 69 60 78 270 221 195 274 240 229 251 244 236 230 225 222 219 215 216 228 232 238 250 257 263 261 254 248 238 249 261 273 278 276 275 273 268 262 257 251 251 249 246 247 245 243 235 232
125 106 52 357 338 250 193 215 251 247 231 227 243 245 236 220 210 213 215 224 231 232 239 251 256 267 269 261 255 246 247 249 254 263 265 271 274 272 266 262 254 253 252 252 249 247 246 239 234
179 153 162 193 224 269 222 237 254 253 261 252 251 246 230 214 211 217 219 219 224 229 232 240 251 262 267 264 263 257 250 248 254 256 259 262 265 266 266 263 261 258 256 257 254 254 249 245 238
147 179 155 128 130 274 264 278 295 261 270 260 257 244 229 224 220 224 228 227 225 229 237 236 245 258 266 266 266 262 253 249 256 263 260 262 264 269 267 265 265 262 258 256 253 254 252 250 243
146 144 124 138 165 246 280 267 256 275 268 273 265 250 249 238 235 236 238 238 236 238 248 249 245 252 261 265 262 267 262 260 262 265 267 267 268 267 269 269 267 265 264 260 256 259 254 250 250
141 147 141 138 164 175 253 266 230 231 240 243 251 250 241 240 242 243 247 249 252 256 252 250 252 260 266 266 264 269 274 274 273 271 271 270 271 269 265 266 267 266 265 263 258 258 258 252 254
177 173 156 163 207 191 206 267 271 242 253 244 256 262 257 255 259 258 257 266 267 259 259 253 253 257 263 265 267 269 275 280 282 280 279 277 276 272 267 266 265 265 265 262 258 259 258 254 254